CFG5JM LEBL-EDDF

Flight info

Callsign CFG5JM
Flight time 1h 42m
Altitude 36000
Route DALIN DCT PIVUS DCT DIBER DCT ADITA DCT MAXIR DCT LUSOL DCT BODRU DCT OKTET DCT IRMAR DCT KINES DCT VANAS DCT ESOKO DCT GODRA/N0451F350 DCT LADOL/N0450F360 T163 EMPAX EMPAX5B
Aircraft A320/M-SDE3FGHIRWY/LB1

Departure

Time 2026-05-05 14:25
Airport Josep Tarradellas Barcelona-El Prat Airport (LEBL)

Arrival

Time 2026-05-05 16:07
Airport Frankfurt Main Airport (EDDF)
Time Latitude Longitude Altitude Speed Heading
2026-05-05 13:47 41.30166 2.07622 24 ft 0 kts 44°
2026-05-05 14:10 41.30165 2.07620 21 ft 2 kts 44°
2026-05-05 14:10 41.30149 2.07601 24 ft 3 kts 42°
2026-05-05 14:11 41.30136 2.07583 21 ft 3 kts 81°
2026-05-05 14:11 41.30135 2.07581 21 ft 0 kts 96°
2026-05-05 14:13 41.30134 2.07587 21 ft 1 kts 96°
2026-05-05 14:13 41.30129 2.07598 40 ft 4 kts 126°
2026-05-05 14:13 41.30090 2.07619 22 ft 8 kts 159°
2026-05-05 14:13 41.30031 2.07652 18 ft 11 kts 143°
2026-05-05 14:14 41.29963 2.07652 16 ft 14 kts 233°
2026-05-05 14:14 41.29923 2.07542 15 ft 12 kts 245°
2026-05-05 14:14 41.29900 2.07476 16 ft 12 kts 245°
2026-05-05 14:14 41.29868 2.07385 15 ft 10 kts 245°
2026-05-05 14:15 41.29829 2.07273 15 ft 13 kts 245°
2026-05-05 14:15 41.29801 2.07213 15 ft 10 kts 214°
2026-05-05 14:15 41.29740 2.07200 16 ft 8 kts 216°
2026-05-05 14:15 41.29707 2.07121 19 ft 10 kts 245°
2026-05-05 14:16 41.29656 2.07056 15 ft 15 kts 183°
2026-05-05 14:16 41.29554 2.07115 15 ft 17 kts 156°
2026-05-05 14:16 41.29445 2.07180 18 ft 17 kts 155°
2026-05-05 14:16 41.29345 2.07243 16 ft 11 kts 145°
2026-05-05 14:17 41.29345 2.07340 17 ft 13 kts 65°
2026-05-05 14:17 41.29392 2.07474 17 ft 17 kts 65°
2026-05-05 14:17 41.29444 2.07629 17 ft 19 kts 66°
2026-05-05 14:17 41.29501 2.07799 17 ft 21 kts 66°
2026-05-05 14:18 41.29563 2.07977 17 ft 22 kts 60°
2026-05-05 14:18 41.29628 2.08168 17 ft 23 kts 66°
2026-05-05 14:18 41.29689 2.08347 17 ft 15 kts 64°
2026-05-05 14:18 41.29714 2.08434 17 ft 9 kts 89°
2026-05-05 14:19 41.29665 2.08489 16 ft 11 kts 154°
2026-05-05 14:19 41.29589 2.08536 19 ft 13 kts 156°
2026-05-05 14:19 41.29494 2.08592 15 ft 17 kts 156°
2026-05-05 14:19 41.29380 2.08661 16 ft 18 kts 154°
2026-05-05 14:20 41.29265 2.08731 17 ft 19 kts 155°
2026-05-05 14:20 41.29138 2.08808 16 ft 21 kts 156°
2026-05-05 14:20 41.29003 2.08889 16 ft 17 kts 155°
2026-05-05 14:20 41.28944 2.08964 16 ft 12 kts 88°
2026-05-05 14:21 41.28979 2.09070 18 ft 14 kts 65°
2026-05-05 14:21 41.29022 2.09196 18 ft 16 kts 65°
2026-05-05 14:21 41.29070 2.09337 17 ft 17 kts 65°
2026-05-05 14:21 41.29123 2.09492 17 ft 19 kts 65°
2026-05-05 14:22 41.29180 2.09660 18 ft 21 kts 66°
2026-05-05 14:22 41.29240 2.09835 18 ft 20 kts 65°
2026-05-05 14:22 41.29300 2.09975 17 ft 17 kts 58°
2026-05-05 14:22 41.29351 2.10123 18 ft 19 kts 65°
2026-05-05 14:23 41.29358 2.10246 15 ft 13 kts 126°
2026-05-05 14:23 41.29264 2.10308 14 ft 16 kts 158°
2026-05-05 14:23 41.29208 2.10289 16 ft 7 kts 239°
2026-05-05 14:23 41.29201 2.10271 15 ft 0 kts 246°
2026-05-05 14:24 41.29198 2.10261 16 ft 8 kts 246°
2026-05-05 14:24 41.29068 2.09881 20 ft 83 kts 245°
2026-05-05 14:24 41.28739 2.08923 22 ft 143 kts 245°
2026-05-05 14:24 41.28283 2.07557 297 ft 163 kts 245°
2026-05-05 14:25 41.27816 2.06387 1302 ft 131 kts 219°
2026-05-05 14:25 41.27000 2.05981 1868 ft 136 kts 180°
2026-05-05 14:25 41.25929 2.06023 2236 ft 167 kts 181°
2026-05-05 14:25 41.24700 2.06035 3009 ft 183 kts 181°
2026-05-05 14:26 41.23404 2.06076 4032 ft 188 kts 180°
2026-05-05 14:26 41.22107 2.06072 5116 ft 189 kts 184°
2026-05-05 14:26 41.20692 2.06031 5742 ft 216 kts 184°
2026-05-05 14:26 41.19102 2.05995 6502 ft 235 kts 184°
2026-05-05 14:27 41.17446 2.05964 7659 ft 238 kts 185°
2026-05-05 14:27 41.15788 2.05857 8873 ft 240 kts 187°
2026-05-05 14:27 41.14114 2.05707 9736 ft 242 kts 187°
2026-05-05 14:27 41.12433 2.05558 10524 ft 243 kts 187°
2026-05-05 14:28 41.10736 2.05427 11314 ft 245 kts 187°
2026-05-05 14:28 41.09026 2.05314 12119 ft 248 kts 187°
2026-05-05 14:28 41.07293 2.05213 12873 ft 250 kts 187°
2026-05-05 14:28 41.05549 2.05118 13615 ft 252 kts 187°
2026-05-05 14:29 41.03783 2.05027 14271 ft 255 kts 187°
2026-05-05 14:29 41.02001 2.05028 14919 ft 261 kts 177°
2026-05-05 14:29 41.00248 2.05862 15533 ft 278 kts 154°
2026-05-05 14:29 40.98815 2.07739 15839 ft 312 kts 127°
2026-05-05 14:30 40.97930 2.10514 15968 ft 341 kts 115°
2026-05-05 14:30 40.97127 2.13568 16101 ft 362 kts 114°
2026-05-05 14:30 40.96307 2.16818 16227 ft 382 kts 114°
2026-05-05 14:30 40.95474 2.20250 16365 ft 402 kts 109°
2026-05-05 14:31 40.95139 2.24003 16725 ft 421 kts 92°
2026-05-05 14:31 40.95578 2.27872 17238 ft 432 kts 75°
2026-05-05 14:31 40.96806 2.31526 17747 ft 439 kts 57°
2026-05-05 14:31 40.98756 2.34649 18294 ft 443 kts 44°
2026-05-05 14:32 41.00927 2.37568 18778 ft 447 kts 44°
2026-05-05 14:32 41.03132 2.40496 19266 ft 452 kts 44°
2026-05-05 14:32 41.05368 2.43454 19733 ft 456 kts 43°
2026-05-05 14:32 41.07619 2.46436 20195 ft 461 kts 44°
2026-05-05 14:33 41.09891 2.49462 20648 ft 465 kts 44°
2026-05-05 14:33 41.12177 2.52518 21106 ft 469 kts 44°
2026-05-05 14:33 41.14485 2.55610 21540 ft 473 kts 44°
2026-05-05 14:33 41.16807 2.58727 21961 ft 477 kts 44°
2026-05-05 14:34 41.19146 2.61874 22386 ft 481 kts 44°
2026-05-05 14:34 41.21503 2.65053 22792 ft 485 kts 44°
2026-05-05 14:34 41.23879 2.68259 23150 ft 489 kts 44°
2026-05-05 14:34 41.26270 2.71484 23542 ft 492 kts 44°
2026-05-05 14:35 41.28682 2.74739 23859 ft 495 kts 44°
2026-05-05 14:35 41.31106 2.78013 24170 ft 498 kts 44°
2026-05-05 14:35 41.33542 2.81309 24513 ft 501 kts 44°
2026-05-05 14:35 41.35991 2.84632 24819 ft 504 kts 44°
2026-05-05 14:36 41.38452 2.87979 25118 ft 508 kts 44°
2026-05-05 14:36 41.40929 2.91351 25403 ft 511 kts 44°
2026-05-05 14:36 41.43418 2.94741 25690 ft 514 kts 44°
2026-05-05 14:36 41.45928 2.98159 25968 ft 517 kts 44°
2026-05-05 14:37 41.48452 3.01594 26251 ft 520 kts 44°
2026-05-05 14:37 41.50990 3.05046 26526 ft 523 kts 44°
2026-05-05 14:37 41.53535 3.08514 26802 ft 525 kts 44°
2026-05-05 14:37 41.56094 3.12014 27064 ft 528 kts 44°
2026-05-05 14:38 41.58663 3.15534 27323 ft 531 kts 44°
2026-05-05 14:38 41.61240 3.19075 27554 ft 533 kts 44°
2026-05-05 14:38 41.63837 3.22646 27800 ft 536 kts 44°
2026-05-05 14:38 41.66441 3.26226 28037 ft 539 kts 44°
2026-05-05 14:39 41.69060 3.29829 28259 ft 541 kts 44°
2026-05-05 14:39 41.71559 3.33512 28464 ft 544 kts 51°
2026-05-05 14:39 41.73766 3.37730 28704 ft 546 kts 60°
2026-05-05 14:39 41.75518 3.42228 29007 ft 544 kts 68°
2026-05-05 14:40 41.77050 3.46849 29301 ft 544 kts 68°
2026-05-05 14:40 41.78593 3.51487 29602 ft 545 kts 68°
2026-05-05 14:40 41.80117 3.56064 29889 ft 545 kts 68°
2026-05-05 14:40 41.81662 3.60707 30152 ft 545 kts 68°
2026-05-05 14:41 41.83202 3.65348 30422 ft 545 kts 69°
2026-05-05 14:41 41.84740 3.69996 30712 ft 544 kts 69°
2026-05-05 14:41 41.86270 3.74634 30998 ft 544 kts 69°
2026-05-05 14:41 41.87793 3.79267 31289 ft 543 kts 69°
2026-05-05 14:42 41.89311 3.83904 31556 ft 541 kts 69°
2026-05-05 14:42 41.90818 3.88522 31869 ft 540 kts 69°
2026-05-05 14:42 41.92325 3.93138 32210 ft 539 kts 69°
2026-05-05 14:42 41.93828 3.97742 32503 ft 538 kts 69°
2026-05-05 14:43 41.95328 4.02342 32788 ft 537 kts 69°
2026-05-05 14:43 41.96824 4.06942 33075 ft 536 kts 70°
2026-05-05 14:43 41.98312 4.11530 33376 ft 536 kts 70°
2026-05-05 14:43 41.99801 4.16121 33668 ft 535 kts 70°
2026-05-05 14:44 42.01285 4.20697 33916 ft 534 kts 70°
2026-05-05 14:44 42.02766 4.25274 34160 ft 533 kts 70°
2026-05-05 14:44 42.04238 4.29845 34416 ft 532 kts 70°
2026-05-05 14:44 42.05705 4.34404 34681 ft 532 kts 68°
2026-05-05 14:45 42.07430 4.38821 34933 ft 533 kts 59°
2026-05-05 14:45 42.09579 4.42881 35170 ft 533 kts 50°
2026-05-05 14:45 42.12122 4.46499 35435 ft 530 kts 40°
2026-05-05 14:45 42.14875 4.49782 35670 ft 529 kts 39°
2026-05-05 14:46 42.17628 4.53066 35865 ft 528 kts 39°
2026-05-05 14:46 42.20379 4.56366 35928 ft 529 kts 40°
2026-05-05 14:46 42.25859 4.63003 35926 ft 529 kts 40°
2026-05-05 14:47 42.31328 4.69648 35949 ft 529 kts 40°
2026-05-05 14:47 42.36804 4.76291 35930 ft 529 kts 40°
2026-05-05 14:48 42.42277 4.82930 35928 ft 528 kts 40°
2026-05-05 14:48 42.47743 4.89591 35933 ft 529 kts 40°
2026-05-05 14:49 42.53200 4.96268 35922 ft 528 kts 40°
2026-05-05 14:49 42.58650 5.02951 35934 ft 528 kts 40°
2026-05-05 14:50 42.64095 5.09644 35940 ft 528 kts 40°
2026-05-05 14:50 42.69540 5.16335 35940 ft 528 kts 40°
2026-05-05 14:51 42.74975 5.23034 35940 ft 527 kts 40°
2026-05-05 14:51 42.80406 5.29762 35939 ft 527 kts 40°
2026-05-05 14:52 42.85820 5.36497 35908 ft 527 kts 40°
2026-05-05 14:52 42.91243 5.43238 35945 ft 527 kts 40°
2026-05-05 14:53 42.96659 5.49982 35946 ft 527 kts 40°
2026-05-05 14:53 43.02069 5.56742 35946 ft 527 kts 40°
2026-05-05 14:54 43.07467 5.63496 35948 ft 526 kts 40°
2026-05-05 14:54 43.12832 5.70220 35972 ft 526 kts 41°
2026-05-05 14:55 43.18214 5.76998 35936 ft 525 kts 40°
2026-05-05 14:55 43.23585 5.83797 35940 ft 526 kts 41°
2026-05-05 14:56 43.28955 5.90597 35960 ft 525 kts 41°
2026-05-05 14:56 43.34338 5.97325 35952 ft 523 kts 36°
2026-05-05 14:57 43.40516 6.02371 35937 ft 512 kts 17°
2026-05-05 14:57 43.47303 6.04793 35949 ft 498 kts 359°
2026-05-05 14:58 43.54168 6.05519 35940 ft 495 kts 357°
2026-05-05 14:58 43.61040 6.06216 35937 ft 495 kts 357°
2026-05-05 14:59 43.67904 6.06915 35952 ft 495 kts 358°
2026-05-05 14:59 43.73617 6.07537 35942 ft 497 kts
2026-05-05 15:00 43.80354 6.10056 35909 ft 510 kts 19°
2026-05-05 15:00 43.86753 6.14392 35953 ft 512 kts 22°
2026-05-05 15:01 43.93149 6.18764 35957 ft 512 kts 22°
2026-05-05 15:01 43.99538 6.23124 35955 ft 512 kts 22°
2026-05-05 15:02 44.05912 6.27476 35987 ft 511 kts 22°
2026-05-05 15:02 44.12272 6.31843 35970 ft 510 kts 23°
2026-05-05 15:03 44.18621 6.36232 35964 ft 510 kts 23°
2026-05-05 15:03 44.24972 6.40623 35973 ft 510 kts 23°
2026-05-05 15:04 44.31332 6.45022 35966 ft 510 kts 23°
2026-05-05 15:04 44.37684 6.49423 35938 ft 509 kts 23°
2026-05-05 15:05 44.47204 6.56042 35959 ft 509 kts 23°
2026-05-05 15:06 44.53546 6.60463 35956 ft 509 kts 23°
2026-05-05 15:06 44.59886 6.64906 35944 ft 509 kts 23°
2026-05-05 15:07 44.66225 6.69344 35944 ft 510 kts 23°
2026-05-05 15:07 44.72571 6.73799 35944 ft 510 kts 23°
2026-05-05 15:08 44.79045 6.77514 35952 ft 502 kts
2026-05-05 15:08 44.85873 6.78648 35949 ft 488 kts 352°
2026-05-05 15:09 44.92634 6.78202 35943 ft 487 kts 351°
2026-05-05 15:09 44.99399 6.77757 35943 ft 487 kts 351°
2026-05-05 15:10 45.06176 6.77322 35953 ft 487 kts 351°
2026-05-05 15:10 45.12948 6.76884 35957 ft 487 kts 351°
2026-05-05 15:11 45.19719 6.76431 35944 ft 486 kts 351°
2026-05-05 15:11 45.26488 6.75970 35941 ft 487 kts 351°
2026-05-05 15:12 45.33256 6.75510 35948 ft 487 kts 351°
2026-05-05 15:12 45.40038 6.75085 35942 ft 490 kts 355°
2026-05-05 15:13 45.46834 6.76555 35937 ft 502 kts 14°
2026-05-05 15:13 45.53168 6.80861 35932 ft 508 kts 28°
2026-05-05 15:14 45.59270 6.85934 35933 ft 507 kts 28°
2026-05-05 15:14 45.65378 6.90997 35949 ft 507 kts 28°
2026-05-05 15:15 45.71472 6.96067 35954 ft 506 kts 28°
2026-05-05 15:15 45.77557 7.01154 35987 ft 507 kts 28°
2026-05-05 15:16 45.83634 7.06258 35975 ft 505 kts 28°
2026-05-05 15:16 45.89692 7.11354 35945 ft 505 kts 28°
2026-05-05 15:17 45.95760 7.16473 35946 ft 506 kts 28°
2026-05-05 15:17 46.01836 7.21619 35919 ft 507 kts 28°
2026-05-05 15:18 46.07914 7.26771 35919 ft 507 kts 28°
2026-05-05 15:18 46.13994 7.31937 35920 ft 507 kts 28°
2026-05-05 15:19 46.19970 7.37034 35937 ft 507 kts 28°
2026-05-05 15:19 46.26024 7.42212 35938 ft 506 kts 28°
2026-05-05 15:20 46.32077 7.47408 35934 ft 506 kts 28°
2026-05-05 15:20 46.38117 7.52594 35929 ft 503 kts 29°
2026-05-05 15:21 46.44129 7.57761 35935 ft 501 kts 29°
2026-05-05 15:21 46.50114 7.62931 35924 ft 501 kts 29°
2026-05-05 15:22 46.56095 7.68122 35913 ft 500 kts 29°
2026-05-05 15:22 46.62082 7.73231 35905 ft 499 kts 27°
2026-05-05 15:23 46.68207 7.77940 35889 ft 498 kts 25°
2026-05-05 15:23 46.74387 7.82492 35887 ft 497 kts 25°
2026-05-05 15:24 46.80529 7.87124 35887 ft 497 kts 26°
2026-05-05 15:24 46.86631 7.91866 35881 ft 496 kts 26°
2026-05-05 15:25 46.92714 7.96624 35888 ft 495 kts 27°
2026-05-05 15:25 46.98789 8.01352 35887 ft 494 kts 27°
2026-05-05 15:26 47.04851 8.06068 35884 ft 493 kts 27°
2026-05-05 15:26 47.10911 8.10775 35891 ft 492 kts 27°
2026-05-05 15:27 47.16954 8.15494 35882 ft 491 kts 27°
2026-05-05 15:27 47.22981 8.20221 35876 ft 491 kts 27°
2026-05-05 15:28 47.28991 8.24954 35869 ft 490 kts 27°
2026-05-05 15:28 47.35001 8.29691 35880 ft 489 kts 27°
2026-05-05 15:29 47.41006 8.34432 35853 ft 489 kts 27°
2026-05-05 15:29 47.47002 8.39186 35860 ft 489 kts 27°
2026-05-05 15:30 47.52994 8.43954 35865 ft 489 kts 28°
2026-05-05 15:30 47.58988 8.48726 35870 ft 488 kts 28°
2026-05-05 15:31 47.64967 8.53501 35874 ft 488 kts 28°
2026-05-05 15:31 47.70943 8.58302 35880 ft 488 kts 28°
2026-05-05 15:32 47.76914 8.63095 35882 ft 487 kts 28°
2026-05-05 15:32 47.82874 8.67882 35878 ft 486 kts 28°
2026-05-05 15:33 47.88819 8.72662 35875 ft 486 kts 28°
2026-05-05 15:33 47.94757 8.77464 35871 ft 485 kts 29°
2026-05-05 15:34 48.00676 8.82276 35873 ft 484 kts 29°
2026-05-05 15:34 48.06567 8.87075 35871 ft 484 kts 29°
2026-05-05 15:35 48.12492 8.91913 35873 ft 483 kts 29°
2026-05-05 15:35 48.18764 8.95444 35870 ft 483 kts 11°
2026-05-05 15:36 48.25416 8.96667 35862 ft 481 kts
2026-05-05 15:36 48.32079 8.97662 35861 ft 481 kts
2026-05-05 15:37 48.38737 8.98672 35561 ft 481 kts
2026-05-05 15:37 48.42065 8.99182 35299 ft 480 kts
2026-05-05 15:37 48.45367 8.99691 35057 ft 472 kts
2026-05-05 15:37 48.48602 9.00189 34814 ft 462 kts
2026-05-05 15:38 48.51768 9.00672 34565 ft 455 kts
2026-05-05 15:38 48.54909 9.01152 33974 ft 455 kts
2026-05-05 15:38 48.58049 9.01628 33540 ft 450 kts
2026-05-05 15:38 48.61134 9.02097 33137 ft 443 kts
2026-05-05 15:39 48.64141 9.02584 32732 ft 437 kts
2026-05-05 15:39 48.67182 9.03210 32275 ft 433 kts
2026-05-05 15:39 48.70121 9.03920 31842 ft 440 kts 10°
2026-05-05 15:39 48.73216 9.04725 31391 ft 462 kts 11°
2026-05-05 15:40 48.76442 9.05573 30957 ft 475 kts 11°
2026-05-05 15:40 48.79725 9.06412 30533 ft 481 kts 11°
2026-05-05 15:40 48.83031 9.07226 30118 ft 483 kts 10°
2026-05-05 15:40 48.86356 9.08019 29672 ft 484 kts 10°
2026-05-05 15:41 48.89689 9.08768 29190 ft 485 kts
2026-05-05 15:41 48.93044 9.09359 28716 ft 486 kts
2026-05-05 15:41 48.96412 9.09824 28235 ft 487 kts
2026-05-05 15:41 48.99792 9.10223 27779 ft 488 kts
2026-05-05 15:42 49.03177 9.10611 27304 ft 488 kts
2026-05-05 15:42 49.06565 9.11022 26805 ft 488 kts
2026-05-05 15:42 49.09937 9.11467 26322 ft 482 kts
2026-05-05 15:42 49.12128 9.11775 26000 ft 474 kts
2026-05-05 15:43 49.15413 9.12255 25523 ft 463 kts
2026-05-05 15:43 49.18596 9.12730 25051 ft 456 kts
2026-05-05 15:43 49.21736 9.13198 24595 ft 451 kts
2026-05-05 15:43 49.24845 9.13655 24148 ft 448 kts
2026-05-05 15:44 49.27943 9.14130 23701 ft 444 kts
2026-05-05 15:44 49.30941 9.15061 23234 ft 437 kts 14°
2026-05-05 15:44 49.33886 9.16097 22716 ft 431 kts 13°
2026-05-05 15:44 49.36791 9.17126 22206 ft 426 kts 13°
2026-05-05 15:45 49.39660 9.18151 21702 ft 421 kts 14°
2026-05-05 15:45 49.42500 9.19175 21192 ft 417 kts 14°
2026-05-05 15:45 49.45313 9.20179 20657 ft 410 kts 13°
2026-05-05 15:45 49.48049 9.21150 20126 ft 399 kts 13°
2026-05-05 15:46 49.50742 9.22103 19619 ft 397 kts 13°
2026-05-05 15:46 49.53424 9.23050 19202 ft 393 kts 13°
2026-05-05 15:46 49.56071 9.23989 18796 ft 388 kts 13°
2026-05-05 15:46 49.58694 9.24923 18353 ft 386 kts 13°
2026-05-05 15:47 49.61297 9.25854 17770 ft 380 kts 14°
2026-05-05 15:47 49.63854 9.26772 16884 ft 375 kts 14°
2026-05-05 15:47 49.66370 9.27679 16039 ft 370 kts 14°
2026-05-05 15:47 49.68827 9.28566 15237 ft 364 kts 14°
2026-05-05 15:48 49.71313 9.29460 14410 ft 360 kts 14°
2026-05-05 15:48 49.73705 9.30319 13649 ft 355 kts 14°
2026-05-05 15:48 49.76126 9.31187 12754 ft 351 kts 14°
2026-05-05 15:48 49.78488 9.32036 11894 ft 347 kts 14°
2026-05-05 15:49 49.80827 9.32878 11079 ft 345 kts 14°
2026-05-05 15:49 49.83191 9.33367 10658 ft 342 kts 355°
2026-05-05 15:49 49.85442 9.32510 10287 ft 336 kts 341°
2026-05-05 15:49 49.87701 9.31627 9913 ft 334 kts 348°
2026-05-05 15:50 49.89988 9.30936 9817 ft 335 kts 349°
2026-05-05 15:50 49.92280 9.30273 9835 ft 335 kts 349°
2026-05-05 15:50 49.94576 9.29605 9837 ft 336 kts 349°
2026-05-05 15:50 49.96874 9.28920 9825 ft 336 kts 349°
2026-05-05 15:51 49.99167 9.28223 9826 ft 336 kts 346°
2026-05-05 15:51 50.01295 9.26777 9828 ft 335 kts 325°
2026-05-05 15:51 50.03266 9.24849 9760 ft 334 kts 334°
2026-05-05 15:51 50.05495 9.23960 9283 ft 331 kts 358°
2026-05-05 15:52 50.07745 9.24505 8876 ft 327 kts 22°
2026-05-05 15:52 50.09730 9.26209 8815 ft 327 kts 33°
2026-05-05 15:52 50.11644 9.28131 8823 ft 328 kts 34°
2026-05-05 15:52 50.13560 9.30080 8824 ft 328 kts 34°
2026-05-05 15:53 50.15472 9.32030 8823 ft 329 kts 34°
2026-05-05 15:53 50.17373 9.33971 8702 ft 320 kts 34°
2026-05-05 15:53 50.19178 9.35815 8377 ft 301 kts 34°
2026-05-05 15:53 50.20886 9.37558 7971 ft 287 kts 34°
2026-05-05 15:54 50.22529 9.39238 7531 ft 276 kts 34°
2026-05-05 15:54 50.24183 9.40583 7173 ft 262 kts 13°
2026-05-05 15:54 50.25947 9.40628 6841 ft 252 kts 342°
2026-05-05 15:54 50.27436 9.39321 6512 ft 245 kts 311°
2026-05-05 15:55 50.28246 9.37054 6286 ft 239 kts 279°
2026-05-05 15:55 50.28171 9.34517 6030 ft 234 kts 248°
2026-05-05 15:55 50.27300 9.32409 5771 ft 232 kts 227°
2026-05-05 15:55 50.26190 9.30587 5514 ft 231 kts 224°
2026-05-05 15:56 50.25058 9.28815 5261 ft 229 kts 224°
2026-05-05 15:56 50.23936 9.27067 5043 ft 224 kts 224°
2026-05-05 15:56 50.22856 9.25386 4977 ft 214 kts 224°
2026-05-05 15:56 50.21818 9.23780 4983 ft 208 kts 224°
2026-05-05 15:57 50.20789 9.22196 4984 ft 208 kts 224°
2026-05-05 15:57 50.19763 9.20619 4987 ft 207 kts 224°
2026-05-05 15:57 50.18735 9.19034 4990 ft 207 kts 224°
2026-05-05 15:57 50.17711 9.17456 4987 ft 207 kts 224°
2026-05-05 15:58 50.16690 9.15877 4987 ft 207 kts 224°
2026-05-05 15:58 50.15669 9.14300 4987 ft 206 kts 224°
2026-05-05 15:58 50.14654 9.12731 4990 ft 206 kts 224°
2026-05-05 15:58 50.13765 9.10985 4984 ft 208 kts 246°
2026-05-05 15:59 50.13650 9.08761 5001 ft 212 kts 279°
2026-05-05 15:59 50.13881 9.06495 4994 ft 211 kts 268°
2026-05-05 15:59 50.13856 9.04214 4991 ft 211 kts 265°
2026-05-05 15:59 50.13773 9.01930 4996 ft 212 kts 264°
2026-05-05 16:00 50.13681 8.99642 4994 ft 211 kts 264°
2026-05-05 16:00 50.13590 8.97366 4996 ft 211 kts 264°
2026-05-05 16:00 50.13503 8.95081 4999 ft 210 kts 264°
2026-05-05 16:00 50.13415 8.92807 4999 ft 210 kts 264°
2026-05-05 16:01 50.13250 8.90552 4997 ft 209 kts 255°
2026-05-05 16:01 50.12853 8.88380 5002 ft 208 kts 249°
2026-05-05 16:01 50.12372 8.86253 4957 ft 209 kts 248°
2026-05-05 16:01 50.11878 8.84148 4738 ft 205 kts 248°
2026-05-05 16:02 50.11389 8.82072 4471 ft 203 kts 248°
2026-05-05 16:02 50.10910 8.80041 4210 ft 197 kts 248°
2026-05-05 16:02 50.10448 8.78083 3912 ft 191 kts 248°
2026-05-05 16:02 50.09997 8.76172 3629 ft 185 kts 248°
2026-05-05 16:03 50.09557 8.74310 3388 ft 183 kts 248°
2026-05-05 16:03 50.09119 8.72460 3138 ft 181 kts 248°
2026-05-05 16:03 50.08693 8.70662 2877 ft 178 kts 248°
2026-05-05 16:03 50.08259 8.68832 2616 ft 178 kts 249°
2026-05-05 16:04 50.07831 8.67028 2372 ft 177 kts 249°
2026-05-05 16:04 50.07409 8.65247 2118 ft 173 kts 249°
2026-05-05 16:04 50.07017 8.63597 1899 ft 154 kts 249°
2026-05-05 16:04 50.06670 8.62136 1678 ft 139 kts 249°
2026-05-05 16:05 50.06341 8.60756 1475 ft 134 kts 248°
2026-05-05 16:05 50.06024 8.59425 1297 ft 133 kts 249°
2026-05-05 16:05 50.05703 8.58074 1092 ft 130 kts 249°
2026-05-05 16:05 50.05390 8.56743 898 ft 132 kts 249°
2026-05-05 16:06 50.05072 8.55402 680 ft 131 kts 248°
2026-05-05 16:06 50.04758 8.54093 501 ft 131 kts 248°
2026-05-05 16:06 50.04441 8.52768 361 ft 127 kts 249°
2026-05-05 16:06 50.04181 8.51695 334 ft 82 kts 250°
2026-05-05 16:07 50.04053 8.51173 328 ft 27 kts 245°
2026-05-05 16:07 50.03943 8.50964 325 ft 17 kts 220°
2026-05-05 16:07 50.03865 8.50861 328 ft 13 kts 219°
2026-05-05 16:07 50.03794 8.50846 332 ft 9 kts 145°
2026-05-05 16:08 50.03783 8.50927 333 ft 12 kts 76°
2026-05-05 16:08 50.03811 8.51050 333 ft 12 kts 69°
2026-05-05 16:08 50.03838 8.51161 334 ft 12 kts 70°
2026-05-05 16:08 50.03873 8.51313 334 ft 15 kts 70°
2026-05-05 16:09 50.03908 8.51460 334 ft 14 kts 69°
2026-05-05 16:09 50.03940 8.51593 333 ft 12 kts 71°
2026-05-05 16:09 50.03971 8.51719 334 ft 16 kts 69°
2026-05-05 16:09 50.04012 8.51892 334 ft 17 kts 69°
2026-05-05 16:10 50.04057 8.52076 339 ft 19 kts 69°
2026-05-05 16:10 50.04097 8.52247 352 ft 15 kts 70°
2026-05-05 16:10 50.04132 8.52394 349 ft 15 kts 69°
2026-05-05 16:10 50.04173 8.52562 353 ft 17 kts 70°
2026-05-05 16:11 50.04210 8.52719 357 ft 14 kts 69°
2026-05-05 16:11 50.04337 8.53245 364 ft 18 kts 69°
2026-05-05 16:12 50.04379 8.53420 372 ft 16 kts 70°
2026-05-05 16:12 50.04414 8.53799 375 ft 17 kts 84°
2026-05-05 16:13 50.04448 8.54316 374 ft 18 kts 84°
2026-05-05 16:13 50.04446 8.54515 367 ft 19 kts 102°
2026-05-05 16:13 50.04380 8.54698 361 ft 19 kts 135°
2026-05-05 16:14 50.04174 8.54848 355 ft 15 kts 161°
2026-05-05 16:14 50.04081 8.54903 351 ft 2 kts 159°
2026-05-05 16:15 50.04077 8.54905 351 ft 0 kts 159°
2026-05-05 16:17 50.04013 8.54944 358 ft 7 kts 159°
2026-05-05 16:17 50.03958 8.54977 352 ft 9 kts 159°
2026-05-05 16:18 50.03905 8.55008 353 ft 0 kts 160°
2026-05-05 16:19 50.03903 8.55009 353 ft 1 kts 160°
2026-05-05 16:19 50.03891 8.55016 356 ft 2 kts 160°
2026-05-05 16:19 50.03848 8.55047 353 ft 4 kts 140°
2026-05-05 16:20 50.03866 8.55188 357 ft 13 kts 69°
2026-05-05 16:20 50.03931 8.55463 352 ft 12 kts 69°
2026-05-05 16:21 50.03994 8.55723 351 ft 14 kts 69°
2026-05-05 16:22 50.04101 8.56169 358 ft 14 kts 69°
2026-05-05 16:22 50.04179 8.56495 356 ft 14 kts 69°
2026-05-05 16:23 50.04248 8.56785 361 ft 13 kts 70°
2026-05-05 16:23 50.04279 8.56915 359 ft 13 kts 69°
2026-05-05 16:23 50.04355 8.57229 361 ft 17 kts 69°
2026-05-05 16:24 50.04394 8.57397 364 ft 16 kts 70°
2026-05-05 16:24 50.04430 8.57551 365 ft 15 kts 70°
2026-05-05 16:24 50.04507 8.57869 365 ft 15 kts 69°
2026-05-05 16:25 50.04542 8.58013 363 ft 14 kts 69°
2026-05-05 16:25 50.04608 8.58291 369 ft 12 kts 69°
2026-05-05 16:25 50.04638 8.58418 370 ft 11 kts 70°
2026-05-05 16:26 50.04693 8.58647 371 ft 15 kts 69°
2026-05-05 16:26 50.04781 8.58996 368 ft 14 kts 69°
2026-05-05 16:27 50.04804 8.59090 372 ft 13 kts 69°
2026-05-05 16:27 50.04836 8.59223 370 ft 13 kts 69°
2026-05-05 16:27 50.04857 8.59303 368 ft 3 kts 57°
2026-05-05 16:27 50.04881 8.59304 367 ft 5 kts 330°
2026-05-05 16:28 50.04915 8.59264 370 ft 6 kts 341°
2026-05-05 16:28 50.04928 8.59256 365 ft 1 kts 339°
2026-05-05 16:28 50.04929 8.59256 365 ft 0 kts 339°